DW3766 Weather Reports


Display with metric or nautical units.
time (UTC)temp
F
wind
direction
speed
MPH
gust
MPH
rain 1hr
in
rain 24hr
in
rain mn
in
humidity
%
barometer
mb
20260906234631 92 103 3.0 6.0 0.00 0.05 0.05 52 1011.2
20260906234147 92 88 2.0 6.0 0.00 0.05 0.05 51 1011.2
20260906233616 92 355 2.0 5.0 0.00 0.05 0.05 51 1011.3
20260906233152 92 342 2.0 5.0 0.00 0.05 0.05 51 1011.3
20260906232621 92 11 0.0 7.0 0.00 0.05 0.05 51 1011.3
20260906232149 92 26 3.0 7.0 0.00 0.05 0.05 51 1011.3
20260906231629 92 35 4.0 7.0 0.00 0.05 0.05 50 1011.3
20260906231154 92 345 3.0 6.0 0.00 0.05 0.05 50 1011.3
20260906230708 92 17 3.0 6.0 0.00 0.05 0.05 51 1011.3
20260906230117 92 19 3.0 7.0 0.00 0.05 0.05 50 1011.3
20260906225645 92 340 3.0 9.0 0.00 0.05 0.05 50 1011.3
20260906225221 92 15 2.0 9.0 0.00 0.05 0.05 50 1011.3
20260906224726 92 360 4.0 8.0 0.00 0.05 0.05 50 1011.3
20260906224118 92 36 3.0 8.0 0.00 0.05 0.05 51 1011.3
20260906223646 92 355 6.0 8.0 0.00 0.05 0.05 51 1011.3
20260906223201 92 40 5.0 8.0 0.00 0.05 0.05 51 1011.4
20260906222630 92 71 2.0 7.0 0.00 0.05 0.05 52 1011.5
20260906222203 91 5 3.0 7.0 0.00 0.05 0.05 53 1011.6
20260906221635 91 44 3.0 8.0 0.00 0.05 0.05 53 1011.7
20260906221149 91 22 4.0 7.0 0.00 0.05 0.05 53 1011.9
20260906220617 91 333 4.0 10.0 0.00 0.05 0.05 54 1011.9
20260906220153 91 46 5.0 10.0 0.00 0.05 0.05 55 1011.8
20260906215623 90 40 4.0 9.0 0.00 0.05 0.05 56 1011.9
20260906215159 90 42 5.0 10.0 0.00 0.05 0.05 55 1011.9
20260906214628 90 84 4.0 9.0 0.00 0.05 0.05 55 1012.0
20260906214154 90 30 5.0 8.0 0.00 0.05 0.05 54 1012.0
20260906213633 90 53 5.0 10.0 0.00 0.05 0.05 55 1012.0
20260906213201 90 73 5.0 9.0 0.00 0.05 0.05 55 1012.0
20260906212637 91 52 6.0 10.0 0.00 0.05 0.05 54 1012.1
20260906212204 91 46 5.0 11.0 0.00 0.05 0.05 54 1012.1
20260906211641 91 27 7.0 11.0 0.00 0.05 0.05 53 1012.2
20260906211208 91 36 6.0 11.0 0.00 0.05 0.05 52 1012.2
20260906210702 91 44 7.0 10.0 0.00 0.05 0.05 51 1012.2
20260906210129 91 360 6.0 10.0 0.00 0.05 0.05 52 1012.2
20260906205705 91 28 5.0 9.0 0.00 0.05 0.05 52 1012.3
20260906205138 91 64 4.0 9.0 0.00 0.05 0.05 52 1012.3
20260906204654 91 68 6.0 9.0 0.00 0.05 0.05 52 1012.4
20260906204123 91 5 5.0 9.0 0.05 0.05 0.05 52 1012.4
20260906203639 91 26 4.0 10.0 0.05 0.05 0.05 53 1012.4
20260906203202 91 69 6.0 11.0 0.05 0.05 0.05 53 1012.5
20260906202631 91 72 4.0 9.0 0.05 0.05 0.05 54 1012.6
20260906202148 91 360 5.0 10.0 0.05 0.05 0.05 54 1012.5
20260906201617 92 59 7.0 10.0 0.05 0.05 0.05 51 1012.5
20260906201146 94 24 7.0 10.0 0.05 0.05 0.05 50 1012.6
20260906200627 0 323 0.0 5.0 0.05 0.05 0.05 1012.7
20260906200156 0 328 1.0 7.0 0.05 0.05 0.05 1012.7
20260906195633 87 272 2.0 8.0 0.05 0.05 0.05 1012.8
20260906195202 86 259 1.0 14.0 0.05 0.05 0.05 1012.9
20260906194639 86 155 6.0 14.0 0.04 0.04 0.04 1013.0
20260906194149 85 42 8.0 13.0 0.00 0.00 0.00 1013.0
20260906193717 85 57 6.0 13.0 0.00 0.00 0.00 1013.1
20260906193231 85 28 8.0 13.0 0.00 0.00 0.00 1013.2
20260906192619 85 25 9.0 13.0 0.00 0.00 0.00 1013.2
20260906192155 86 61 7.0 16.0 0.00 0.00 0.00 1013.3
20260906191723 86 33 9.0 16.0 0.00 0.00 0.00 1013.4
20260906191122 88 15 9.0 15.0 0.00 0.00 0.00 1013.4
20260906190652 89 45 9.0 15.0 0.00 0.00 0.00 1013.3
20260906190114 93 65 10.0 15.0 0.00 0.00 0.00 1013.3
20260906185629 95 107 5.0 10.0 0.00 0.00 0.00 1013.2
20260906185158 95 176 7.0 12.0 0.00 0.00 0.00 1013.1
20260906184633 95 176 6.0 14.0 0.00 0.00 0.00 1013.1
20260906184202 95 166 6.0 13.0 0.00 0.00 0.00 1013.1
20260906183618 95 126 4.0 9.0 0.00 0.00 0.00 1013.1
20260906183147 95 236 4.0 11.0 0.00 0.00 0.00 1013.3
20260906182625 96 138 8.0 11.0 0.00 0.00 0.00 1013.4
20260906182153 95 206 5.0 12.0 0.00 0.00 0.00 1013.4
20260906181629 94 161 6.0 12.0 0.00 0.00 0.00 1013.4
20260906181158 93 127 4.0 10.0 0.00 0.00 0.00 1013.4
20260906180707 93 88 4.0 7.0 0.00 0.00 0.00 1013.5
20260906180144 93 252 4.0 11.0 0.00 0.00 0.00 1013.6
20260906175653 93 169 6.0 11.0 0.00 0.00 0.00 1013.7
20260906175129 93 119 6.0 10.0 0.00 0.00 0.00 1013.7
20260906174657 93 146 6.0 10.0 0.00 0.00 0.00 1013.9
20260906174138 92 229 4.0 10.0 0.00 0.00 0.00 1014.1
20260906173707 92 218 7.0 10.0 0.00 0.00 0.00 1014.1
20260906173137 92 194 5.0 8.0 0.00 0.00 0.00 1014.2
20260906172651 92 80 1.0 7.0 0.00 0.00 0.00 1014.4
20260906172158 91 17 3.0 7.0 0.00 0.00 0.00 1014.5
20260906171634 91 108 3.0 9.0 0.00 0.00 0.00 1014.6
20260906171203 91 198 6.0 9.0 0.00 0.00 0.00 1014.6
20260906170640 90 80 3.0 7.0 0.00 0.00 0.00 1014.7
20260906170207 90 116 3.0 6.0 0.00 0.00 0.00 1014.7
20260906165643 91 355 4.0 6.0 0.00 0.00 0.00 1014.8
20260906165115 91 240 2.0 6.0 0.00 0.00 0.00 1014.9
20260906164629 91 109 1.0 8.0 0.00 0.00 0.00 1014.8
20260906164159 90 241 6.0 8.0 0.00 0.00 0.00 1014.9
20260906163628 90 117 3.0 9.0 0.00 0.00 0.00 1014.8
20260906163145 90 148 3.0 9.0 0.00 0.00 0.00 1014.7
20260906162613 90 157 5.0 10.0 0.00 0.00 0.00 1014.8
20260906162141 90 156 7.0 10.0 0.00 0.00 0.00 1014.7
20260906161718 90 90 2.0 7.0 0.00 0.00 0.00 1014.7
20260906161125 89 74 4.0 11.0 0.00 0.00 0.00 1014.8
20260906160701 89 117 5.0 9.0 0.00 0.00 0.00 1014.7
20260906160134 89 92 6.0 9.0 0.00 0.00 0.00 1014.8
20260906155650 89 144 1.0 7.0 0.00 0.00 0.00 1014.8
20260906155137 88 186 4.0 7.0 0.00 0.00 0.00 1014.7
20260906154613 88 186 2.0 7.0 0.00 0.00 0.00 1014.7
20260906154118 87 142 3.0 8.0 0.00 0.00 0.00 1014.7
20260906153654 87 238 4.0 8.0 0.00 0.00 0.00 1014.8
20260906153223 87 259 4.0 9.0 0.00 0.00 0.00 1014.8
20260906152639 87 120 6.0 10.0 0.00 0.00 0.00 1014.7
20260906152206 87 216 4.0 9.0 0.00 0.00 0.00 1014.6
20260906151637 86 132 5.0 8.0 0.00 0.00 0.00 1014.6
20260906151118 86 106 4.0 7.0 0.00 0.00 0.00 1014.6
20260906150625 85 249 3.0 7.0 0.00 0.00 0.00 1014.5
20260906150202 85 202 3.0 9.0 0.00 0.00 0.00 1014.5
20260906145627 84 219 4.0 10.0 0.00 0.00 0.00 1014.5
20260906145136 84 190 7.0 10.0 0.00 0.00 0.00 1014.5
20260906144713 84 227 6.0 10.0 0.00 0.00 0.00 1014.5
20260906144129 83 210 5.0 12.0 0.00 0.00 0.00 1014.6
20260906143705 83 209 7.0 12.0 0.00 0.00 0.00 1014.4
20260906143135 83 169 3.0 6.0 0.00 0.00 0.00 1014.4
20260906142704 82 89 2.0 6.0 0.00 0.00 0.00 1014.4
20260906142141 82 133 2.0 6.0 0.00 0.00 0.00 1014.4
20260906141710 81 121 1.0 5.0 0.00 0.00 0.00 1014.4
20260906141224 81 106 3.0 5.0 0.00 0.00 0.00 1014.4
20260906140631 81 76 2.0 5.0 0.00 0.00 0.00 1014.4
20260906140140 81 123 1.0 5.0 0.00 0.00 0.00 1014.4
20260906135617 80 89 1.0 5.0 0.00 0.00 0.00 1014.4
20260906135146 80 116 2.0 5.0 0.00 0.00 0.00 1014.3
20260906134623 79 119 3.0 5.0 0.00 0.00 0.00 1014.3
20260906134146 78 103 2.0 3.0 0.00 0.00 0.00 1014.3
20260906133713 78 107 1.0 3.0 0.00 0.00 0.00 1014.3
20260906133133 77 189 1.0 2.0 0.00 0.00 0.00 1014.2
20260906132703 76 189 0.0 0.0 0.00 0.00 0.00 1014.2
20260906132138 76 189 0.0 0.0 0.00 0.00 0.00 1014.1
20260906131625 75 189 0.0 0.0 0.00 0.00 0.00 1014.1
20260906131155 75 189 0.0 0.0 0.00 0.00 0.00 1014.1
20260906130632 75 189 0.0 0.0 0.00 0.00 0.00 1013.9
20260906130201 75 189 0.0 0.0 0.00 0.00 0.00 1013.9
20260906125638 74 189 0.0 0.0 0.00 0.00 0.00 1013.8
20260906125148 74 189 0.0 0.0 0.00 0.00 0.00 1013.8
20260906124622 74 189 0.0 0.0 0.00 0.00 0.00 1013.7
20260906124137 74 189 0.0 0.0 0.00 0.00 0.00 1013.7
20260906123706 74 189 0.0 0.0 0.00 0.00 0.00 1013.7
20260906123140 74 189 0.0 0.0 0.00 0.00 0.00 1013.6
20260906122709 74 189 0.0 0.0 0.00 0.00 0.00 1013.5
20260906122117 74 189 0.0 1.0 0.00 0.00 0.00 1013.5
20260906121654 74 189 0.0 4.0 0.00 0.00 0.00 1013.4
20260906121123 74 189 2.0 4.0 0.00 0.00 0.00 1013.3
20260906120700 74 189 0.0 2.0 0.00 0.00 0.00 1013.4
20260906120113 74 189 1.0 2.0 0.00 0.00 0.00 1013.3
20260906115647 75 189 0.0 2.0 0.00 0.00 0.00 1013.2
20260906115215 75 189 1.0 4.0 0.00 0.00 0.00 1013.2
20260906114710 75 179 1.0 6.0 0.00 0.00 0.00 1013.1
20260906114139 75 207 1.0 6.0 0.00 0.00 0.00 1013.1
20260906113708 75 197 3.0 5.0 0.00 0.00 0.00 1012.7
20260906113145 75 349 0.0 2.0 0.00 0.00 0.00 1012.5
20260906112614 75 349 1.0 4.0 0.00 0.00 0.00 1012.5
20260906112151 75 331 1.0 3.0 0.00 0.00 0.00 1012.4
20260906111624 75 331 1.0 4.0 0.00 0.00 0.00 1012.3
20260906111201 75 315 2.0 3.0 0.00 0.00 0.00 1012.3
20260906110629 75 255 0.0 2.0 0.00 0.00 0.00 1012.3
20260906110136 75 255 1.0 1.0 0.00 0.00 0.00 1012.4
20260906105713 75 255 0.0 1.0 0.00 0.00 0.00 1012.3
20260906105121 75 255 0.0 1.0 0.00 0.00 0.00 1012.3
20260906104658 75 255 0.0 0.0 0.00 0.00 0.00 1012.3
20260906104127 75 256 0.0 2.0 0.00 0.00 0.00 1012.3
20260906103704 75 255 0.0 2.0 0.00 0.00 0.00 1012.2
20260906103138 75 255 0.0 2.0 0.00 0.00 0.00 1012.2
20260906102703 75 255 0.0 0.0 0.00 0.00 0.00 1012.0
20260906102140 75 256 0.0 0.0 0.00 0.00 0.00 1012.0
20260906101647 75 256 0.0 0.0 0.00 0.00 0.00 1012.1
20260906101124 75 256 0.0 0.0 0.00 0.00 0.00 1012.1
20260906100653 75 255 0.0 0.0 0.00 0.00 0.00 1012.1
20260906100202 75 256 0.0 0.0 0.00 0.00 0.00 1012.1
20260906095629 75 255 0.0 0.0 0.00 0.00 0.00 1012.0
20260906095117 75 255 0.0 0.0 0.00 0.00 0.00 1012.0
20260906094654 75 255 0.0 0.0 0.00 0.00 0.00 1012.1
20260906094201 75 256 0.0 0.0 0.00 0.00 0.00 1012.1
20260906093620 75 256 0.0 0.0 0.00 0.00 0.00 1012.1
20260906093149 76 256 0.0 0.0 0.00 0.00 0.00 1012.1
20260906092626 76 255 0.0 0.0 0.00 0.00 0.00 1012.0
20260906092136 76 255 0.0 0.0 0.00 0.00 0.00 1012.2
20260906091706 76 255 0.0 0.0 0.00 0.00 0.00 1012.2
20260906091221 76 255 0.0 0.0 0.00 0.00 0.00 1012.3
20260906090630 76 256 0.0 0.0 0.00 0.00 0.00 1012.3
20260906085643 77 255 0.0 1.0 0.00 0.00 0.00 1012.3
20260906085200 77 255 0.0 2.0 0.00 0.00 0.00 1012.3
20260906084641 77 256 1.0 2.0 0.00 0.00 0.00 1012.4
20260906084206 77 255 0.0 2.0 0.00 0.00 0.00 1012.4
20260906083644 78 256 0.0 0.0 0.00 0.00 0.00 1012.4
20260906083112 78 256 0.0 1.0 0.00 0.00 0.00 1012.4
20260906082642 78 255 0.0 1.0 0.00 0.00 0.00 1012.5
20260906082118 78 256 0.0 1.0 0.00 0.00 0.00 1012.6
20260906081648 78 256 0.0 1.0 0.00 0.00 0.00 1012.5
20260906081127 79 256 0.0 1.0 0.00 0.00 0.00 1012.6
20260906080655 79 256 0.0 1.0 0.00 0.00 0.00 1012.5
20260906080232 79 256 0.0 2.0 0.00 0.00 0.00 1012.6
20260906075639 79 256 1.0 2.0 0.00 0.00 0.00 1012.6
20260906075217 79 256 1.0 2.0 0.00 0.00 0.00 1012.8
20260906074624 79 256 1.0 2.0 0.00 0.00 0.00 1012.7
20260906074201 79 256 1.0 4.0 0.00 0.00 0.00 1012.9
20260906073626 79 210 1.0 4.0 0.00 0.00 0.00 1013.0
20260906073151 79 169 0.0 1.0 0.00 0.00 0.00 1013.1
20260906072647 80 169 0.0 1.0 0.00 0.00 0.00 1013.3
20260906072154 80 168 0.0 1.0 0.00 0.00 0.00 1013.2
20260906071635 80 139 0.0 0.0 0.00 0.00 0.00 1013.2
20260906071204 80 140 0.0 2.0 0.00 0.00 0.00 1013.2
20260906070612 80 140 0.0 2.0 0.00 0.00 0.00 1013.1
20260906070127 80 140 1.0 4.0 0.00 0.00 0.00 1013.2
20260906065626 81 111 2.0 5.0 0.00 0.00 0.00 1013.2
20260906065135 81 131 2.0 5.0 0.00 0.00 0.00 1013.3
20260906064617 81 135 3.0 5.0 0.00 0.00 0.00 1013.3
20260906064145 81 126 2.0 6.0 0.00 0.00 0.00 1013.4
20260906063626 81 142 3.0 7.0 0.00 0.00 0.00 1013.4
20260906063115 81 145 4.0 7.0 0.00 0.00 0.00 1013.4
20260906062616 81 148 3.0 5.0 0.00 0.00 0.00 1013.4
20260906062121 81 140 3.0 5.0 0.00 0.00 0.00 1013.4
20260906061629 82 121 1.0 3.0 0.00 0.00 0.00 1013.6
20260906061129 82 159 2.0 5.0 0.00 0.00 0.00 1013.5
20260906060637 82 152 2.0 5.0 0.00 0.00 0.00 1013.6
20260906060123 82 151 2.0 5.0 0.00 0.00 0.00 1013.5
20260906055645 82 152 2.0 5.0 0.00 0.00 0.00 1013.6
20260906055129 83 156 1.0 2.0 0.00 0.00 0.00 1013.6
20260906054637 83 156 0.0 4.0 0.00 0.00 0.00 1013.5
20260906054117 83 156 1.0 5.0 0.00 0.00 0.00 1013.4
20260906053625 83 166 1.0 6.0 0.00 0.00 0.00 1013.4
20260906053125 83 147 2.0 7.0 0.00 0.00 0.00 1013.5
20260906052634 83 152 3.0 7.0 0.00 0.00 0.00 1013.6
20260906052115 83 115 4.0 8.0 0.00 0.00 0.00 1013.5
20260906051623 83 149 5.0 8.0 0.00 0.00 0.00 1013.6
20260906051123 83 151 4.0 10.0 0.00 0.00 0.00 1013.6
20260906050630 83 161 3.0 6.0 0.00 0.00 0.00 1013.6
20260906050129 84 153 2.0 7.0 0.00 0.00 0.00 1013.8
20260906045632 84 144 5.0 7.0 0.00 0.00 0.00 1013.8
20260906045119 84 140 4.0 8.0 0.00 0.00 0.00 1013.7
20260906044649 84 123 3.0 8.0 0.00 0.00 0.00 1013.7
20260906044123 84 167 4.0 8.0 0.00 0.00 0.00 1013.7
20260906043652 84 142 4.0 9.0 0.00 0.00 0.00 1013.7
20260906043227 85 155 4.0 10.0 0.00 0.00 0.00 1013.7
20260906042634 85 142 4.0 12.0 0.00 0.00 0.00 1013.7
20260906042114 85 139 5.0 12.0 0.00 0.00 0.00 1013.7
20260906041636 85 173 6.0 10.0 0.00 0.00 0.00 1013.7
20260906041212 85 159 5.0 11.0 0.00 0.00 0.00 1013.5
20260906040621 85 148 6.0 11.0 0.00 0.00 0.00 1013.5
20260906040129 86 104 6.0 12.0 0.00 0.00 0.00 1013.5
20260906035638 86 134 6.0 13.0 0.00 0.00 0.00 1013.4
20260906035113 86 86 7.0 13.0 0.00 0.00 0.00 1013.2
20260906034643 86 152 6.0 12.0 0.00 0.00 0.00 1013.2
20260906034218 86 126 6.0 9.0 0.00 0.00 0.00 1013.2
20260906033706 86 139 5.0 10.0 0.00 0.00 0.00 1013.1
20260906033147 87 134 6.0 10.0 0.00 0.00 0.00 1013.1
20260906032652 87 165 5.0 10.0 0.00 0.00 0.00 1012.9
20260906032127 87 161 5.0 11.0 0.00 0.00 0.00 1012.8
20260906031655 87 155 6.0 13.0 0.00 0.00 0.00 1012.7
20260906031207 87 171 7.0 13.0 0.00 0.00 0.00 1012.6
20260906030637 87 158 6.0 13.0 0.00 0.00 0.00 1012.5
20260906030144 87 153 8.0 15.0 0.00 0.00 0.00 1012.4
20260906025700 87 144 8.0 15.0 0.00 0.00 0.00 1012.3
20260906025208 86 138 8.0 12.0 0.00 0.00 0.00 1012.2
20260906024635 86 123 6.0 11.0 0.00 0.00 0.00 1012.0
20260906024146 86 128 5.0 9.0 0.00 0.00 0.00 1012.0
20260906023651 86 136 2.0 6.0 0.00 0.00 0.00 1011.8
20260906023129 86 121 2.0 4.0 0.00 0.00 0.00 1011.7
20260906022655 86 117 1.0 6.0 0.00 0.00 0.00 1011.5
20260906022130 86 95 2.0 6.0 0.00 0.00 0.00 1011.4
20260906021652 86 101 2.0 6.0 0.00 0.00 0.00 1011.2
20260906021140 86 81 2.0 9.0 0.00 0.00 0.00 1011.2
20260906020614 86 67 6.0 9.0 0.00 0.00 0.00 1011.1
20260906020141 87 104 5.0 9.0 0.00 0.00 0.00 1011.1
20260906015618 88 113 0.0 1.0 0.00 0.00 0.00 1011.0
20260906015147 88 129 0.0 0.0 0.00 0.00 0.00 1010.8
20260906014625 89 129 0.0 0.0 0.00 0.00 0.00 1010.8
20260906014154 89 129 0.0 0.0 0.00 0.00 0.00 1010.8
20260906013630 90 129 0.0 0.0 0.00 0.00 0.00 1010.8
20260906013159 90 129 0.0 0.0 0.00 0.00 0.00 1010.8
20260906012635 90 129 0.0 0.0 0.00 0.00 0.00 1010.8
20260906012145 91 129 0.0 0.0 0.00 0.00 0.00 1010.8
20260906011612 91 129 0.0 0.0 0.00 0.00 0.00 1010.8
20260906011149 91 129 0.0 0.0 0.00 0.00 0.00 1010.7
20260906010623 92 129 0.0 0.0 0.00 0.00 0.00 1010.7
20260906010138 92 129 0.0 4.0 0.00 0.00 0.00 1010.5
20260906005702 92 129 1.0 5.0 0.00 0.00 0.00 1010.5
20260906005138 93 125 2.0 6.0 0.00 0.00 0.00 1010.4
20260906004647 93 128 2.0 6.0 0.00 0.00 0.00 1010.4
20260906004116 94 115 2.0 5.0 0.00 0.00 0.00 1010.4
20260906003653 94 131 2.0 5.0 0.00 0.00 0.00 1010.4
20260906003221 94 120 3.0 5.0 0.00 0.00 0.00 1010.4
20260906002636 95 123 2.0 3.0 0.00 0.00 0.00 1010.4
20260906002146 95 120 1.0 6.0 0.00 0.00 0.00 1010.4
20260906001654 95 121 2.0 6.0 0.00 0.00 0.00 1010.4
20260906001128 95 138 3.0 6.0 0.00 0.00 0.00 1010.5
20260906000656 95 141 2.0 5.0 0.00 0.00 0.00 1010.4
20260906000132 95 103 3.0 6.0 0.00 0.00 0.00 1010.4
20260905235700 95 121 4.0 7.0 0.00 0.00 0.00 1010.4
20260905235138 95 113 2.0 7.0 0.00 0.00 0.00 1010.4